This is the latest recevied weather packets stored in our database for station/object W4MLN-3. If no packets are shown the sender has not sent any weather packets the latest 10 day(s).
| Time | Temp. | Humidity | Pressure | Rain* | Wind** | Luminosity | Snow |
|---|---|---|---|---|---|---|---|
| 1777826404 | 11.67° C | 37% | 1017.9 hPa | 0 mm | - | - | - |
| 1777826103 | 11.11° C | 34% | 1017.9 hPa | 0 mm | - | - | - |
| 1777825803 | 11.11° C | 33% | 1018 hPa | 0 mm | - | - | - |
| 1777825524 | 10.56° C | 35% | 1017.9 hPa | 0 mm | - | - | - |
| 1777825204 | 10.56° C | 35% | 1018.1 hPa | 0 mm | - | - | - |
| 1777824903 | 10.56° C | 33% | 1018.1 hPa | 0 mm | - | - | - |
| 1777824624 | 10.56° C | 35% | 1018.2 hPa | 0 mm | - | - | - |
| 1777824304 | 10.56° C | 37% | 1018.2 hPa | 0 mm | - | - | - |
| 1777824003 | 10.56° C | 35% | 1018.2 hPa | 0 mm | - | - | - |
| 1777823703 | 10° C | 38% | 1018.3 hPa | 0 mm | - | - | - |
| 1777823404 | 10° C | 33% | 1018.4 hPa | 0 mm | - | - | - |
| 1777823103 | 10° C | 34% | 1018.2 hPa | 0 mm | - | - | - |
| 1777822804 | 10° C | 35% | 1018.4 hPa | 0 mm | - | - | - |
| 1777822503 | 9.44° C | 36% | 1018.3 hPa | 0 mm | - | - | - |
| 1777822224 | 8.89° C | 37% | 1018.4 hPa | 0 mm | - | - | - |
| 1777821904 | 8.89° C | 35% | 1018.2 hPa | 0 mm | - | - | - |
| 1777821604 | 8.89° C | 38% | 1018 hPa | 0 mm | - | - | - |
| 1777821324 | 8.89° C | 38% | 1018.2 hPa | 0 mm | - | - | - |
| 1777821003 | 8.89° C | 38% | 1018.2 hPa | 0 mm | - | - | - |
| 1777820703 | 8.89° C | 40% | 1018 hPa | 0 mm | - | - | - |
| 1777820403 | 8.33° C | 39% | 1018.1 hPa | 0 mm | - | - | - |
| 1777820103 | 8.33° C | 43% | 1018.1 hPa | 0 mm | - | - | - |
| 1777819803 | 7.78° C | 43% | 1017.9 hPa | 0 mm | - | - | - |
| 1777819503 | 7.78° C | 43% | 1017.9 hPa | 0 mm | - | - | - |
| 1777819203 | 7.78° C | 43% | 1017.9 hPa | 0 mm | - | - | - |
* Rain latest hour (hover to see other rain measurements)
** Current wind speed in m/s (hover to see current wind gust speed)